Austin, MN

11:13 PM CDT on April 29, 2017 (GMT -0500)
Austin Municipal

Weather History for KAUM - September, 2012

Change the Weather History Date:

Monday, September 3, 2012

  Actual Average Record
Temperature  
Mean Temperature 74 °F -  
Max Temperature 82 °F 75 °F 87 °F (2015)
Min Temperature 66 °F 55 °F 41 °F (2013)
Cooling Degree Days 9    
Growing Degree Days 24 (Base 50)    
Moisture  
Dew Point 69 °F    
Average Humidity 83    
Maximum Humidity 100    
Minimum Humidity 66    
Precipitation  
Precipitation 0.04 in - - ()
Sea Level Pressure  
Sea Level Pressure 29.92 in    
Wind  
Wind Speed 3 mph (SSW)    
Max Wind Speed 12 mph    
Max Gust Speed -    
Visibility 9 miles    
Events Rain , Thunderstorm    
Averages and records for this station are not official NWS values.
T = Trace of Precipitation, MM = Missing Value Source: NWS Daily Summary

Daily Weather History Graph

Daily Weather History Graph

Search for Another Location

Airport or City:

Trip Planner

Search our weather history database for the weather conditions in past years. The results will help you decide how hot, cold, wet, or windy it might be!

Date:

Astronomy

Sep. 03, 2012 Rise Set
Actual Time 6:38 AM CDT 7:42 PM CDT
Civil Twilight 6:08 AM CDT 8:12 PM CDT
Nautical Twilight 5:33 AM CDT 8:47 PM CDT
Astronomical Twilight 4:56 AM CDT 9:23 PM CDT
Moon 8:53 PM CDT (9/3) 9:55 AM CDT (9/3)
Length of Visible Light 14h 03m
Length of Day
13h 04m
Waning Gibbous, 90% of the Moon is Illuminated
Sep 3
Waning Gibbous
Sep 8
Last Quarter
Sep 15
New
Sep 22
First Quarter
Sep 29
Full

Hourly Weather History & Observations

Time (CDT) Temp. Heat Index Dew Point Humidity Pressure Visibility Wind Dir Wind Speed Gust Speed Precip Events Conditions
12:15 AM 75.2 °F - 66.2 °F 73% 29.91 in 10.0 mi South 5.8 mph - N/A   Clear
12:34 AM 73.4 °F - 66.2 °F 78% 29.92 in 10.0 mi Calm Calm - N/A   Clear
12:54 AM 71.6 °F - 66.2 °F 83% 29.93 in 10.0 mi Calm Calm - N/A   Clear
1:15 AM 71.6 °F - 66.2 °F 83% 29.93 in 10.0 mi Calm Calm - N/A   Clear
1:34 AM 71.6 °F - 66.2 °F 83% 29.93 in 10.0 mi Calm Calm - N/A   Clear
1:54 AM 71.6 °F - 66.2 °F 83% 29.92 in 10.0 mi South 5.8 mph - N/A   Clear
2:15 AM 71.6 °F - 66.2 °F 83% 29.92 in 10.0 mi South 3.5 mph - N/A   Clear
2:34 AM 69.8 °F - 66.2 °F 88% 29.92 in 10.0 mi Calm Calm - N/A   Clear
2:54 AM 69.8 °F - 66.2 °F 88% 29.92 in 10.0 mi Calm Calm - N/A   Clear
3:14 AM 69.8 °F - 66.2 °F 88% 29.91 in 10.0 mi Calm Calm - N/A   Clear
3:34 AM 69.8 °F - 66.2 °F 88% 29.92 in 10.0 mi Calm Calm - N/A   Clear
3:55 AM 69.8 °F - 66.2 °F 88% 29.92 in 10.0 mi South 3.5 mph - N/A   Clear
4:14 AM 68.0 °F - 66.2 °F 94% 29.92 in 7.0 mi Calm Calm - N/A   Clear
4:34 AM 68.0 °F - 66.2 °F 94% 29.92 in 7.0 mi South 3.5 mph - N/A   Scattered Clouds
4:55 AM 69.8 °F - 66.2 °F 88% 29.93 in 7.0 mi Calm Calm - N/A   Mostly Cloudy
5:14 AM 68.0 °F - 66.2 °F 94% 29.93 in 7.0 mi Calm Calm - N/A   Mostly Cloudy
5:34 AM 68.0 °F - 66.2 °F 94% 29.94 in 7.0 mi Calm Calm - N/A   Mostly Cloudy
5:54 AM 69.8 °F - 66.2 °F 88% 29.94 in 7.0 mi Calm Calm - N/A Thunderstorm Mostly Cloudy
6:15 AM 69.8 °F - 66.2 °F 88% 29.94 in 7.0 mi South 3.5 mph - N/A   Mostly Cloudy
6:34 AM 69.8 °F - 66.2 °F 88% 29.94 in 7.0 mi SSW 3.5 mph - N/A Rain , Thunderstorm Light Thunderstorms and Rain
6:54 AM 69.8 °F - 66.2 °F 88% 29.93 in 5.0 mi South 5.8 mph - N/A   Scattered Clouds
7:15 AM 69.8 °F - 68.0 °F 94% 29.94 in 5.0 mi South 4.6 mph - N/A   Clear
7:34 AM 69.8 °F - 68.0 °F 94% 29.94 in 5.0 mi Calm Calm - N/A   Clear
7:54 AM 69.8 °F - 68.0 °F 94% 29.94 in 5.0 mi Calm Calm - N/A   Clear
8:15 AM 69.8 °F - 69.8 °F 100% 29.94 in 5.0 mi South 3.5 mph - N/A   Clear
8:34 AM 71.6 °F - 69.8 °F 94% 29.94 in 7.0 mi Calm Calm - N/A   Clear
8:54 AM 73.4 °F - 69.8 °F 88% 29.94 in 7.0 mi Calm Calm - N/A   Clear
9:15 AM 75.2 °F - 69.8 °F 83% 29.94 in 10.0 mi SSW 4.6 mph - N/A   Clear
9:34 AM 77.0 °F - 69.8 °F 78% 29.93 in 10.0 mi Calm Calm - N/A   Clear
9:54 AM 80.6 °F 84.6 °F 71.6 °F 74% 29.94 in 10.0 mi SW 6.9 mph - N/A Thunderstorm Thunderstorm
10:14 AM 78.8 °F - 71.6 °F 78% 29.95 in 10.0 mi WSW 6.9 mph - N/A Thunderstorm Thunderstorm
10:35 AM 78.8 °F - 71.6 °F 78% 29.94 in 10.0 mi West 3.5 mph - N/A Rain , Thunderstorm Light Thunderstorms and Rain
10:54 AM 78.8 °F - 71.6 °F 78% 29.95 in 7.0 mi WNW 5.8 mph - 0.02 in Rain , Thunderstorm Heavy Thunderstorms and Rain
11:14 AM 75.2 °F - 73.4 °F 94% 29.94 in 5.0 mi Calm Calm - 0.02 in Rain Rain
11:35 AM 75.2 °F - 71.6 °F 89% 29.94 in 10.0 mi Calm Calm - 0.02 in Rain , Thunderstorm Light Thunderstorms and Rain
11:54 AM 77.0 °F - 71.6 °F 83% 29.95 in 10.0 mi SW 4.6 mph - 0.02 in Thunderstorm Thunderstorm
12:14 PM 77.0 °F - 71.6 °F 83% 29.94 in 10.0 mi South 4.6 mph - N/A Thunderstorm Overcast
12:35 PM 78.8 °F - 73.4 °F 83% 29.93 in 10.0 mi South 6.9 mph - N/A Thunderstorm Mostly Cloudy
12:54 PM 80.6 °F 85.4 °F 73.4 °F 79% 29.94 in 10.0 mi South 6.9 mph - N/A   Mostly Cloudy
1:15 PM 82.4 °F 87.2 °F 71.6 °F 70% 29.93 in 10.0 mi SW 11.5 mph - N/A   Scattered Clouds
1:35 PM 82.4 °F 87.2 °F 71.6 °F 70% 29.93 in 10.0 mi SW 10.4 mph - N/A   Scattered Clouds
1:54 PM 82.4 °F 87.2 °F 71.6 °F 70% 29.93 in 10.0 mi SW 9.2 mph - N/A   Scattered Clouds
2:15 PM 82.4 °F 87.2 °F 71.6 °F 70% 29.92 in 10.0 mi SSW 9.2 mph - N/A   Mostly Cloudy
2:34 PM 82.4 °F 86.3 °F 69.8 °F 66% 29.91 in 10.0 mi SSW 6.9 mph - N/A   Scattered Clouds
2:54 PM 82.4 °F 86.3 °F 69.8 °F 66% 29.91 in 10.0 mi SW 8.1 mph - N/A   Clear
3:15 PM 82.4 °F 86.3 °F 69.8 °F 66% 29.91 in 10.0 mi WSW 8.1 mph - N/A   Clear
3:34 PM 80.6 °F 83.9 °F 69.8 °F 70% 29.91 in 10.0 mi WSW 5.8 mph - N/A   Clear
3:54 PM 80.6 °F 83.9 °F 69.8 °F 70% 29.91 in 10.0 mi WSW 5.8 mph - N/A   Clear
4:15 PM 80.6 °F 83.9 °F 69.8 °F 70% 29.91 in 10.0 mi SW 5.8 mph - N/A   Clear
4:34 PM 80.6 °F 83.9 °F 69.8 °F 70% 29.90 in 10.0 mi SSW 3.5 mph - N/A   Clear
4:54 PM 80.6 °F 84.6 °F 71.6 °F 74% 29.90 in 10.0 mi Calm Calm - N/A   Clear
5:15 PM 82.4 °F 87.2 °F 71.6 °F 70% 29.90 in 10.0 mi SSW 3.5 mph - N/A   Clear
5:34 PM 82.4 °F 86.3 °F 69.8 °F 66% 29.89 in 10.0 mi SSW 6.9 mph - N/A   Clear
5:55 PM 82.4 °F 86.3 °F 69.8 °F 66% 29.89 in 10.0 mi SSW 8.1 mph - N/A   Scattered Clouds
6:15 PM 82.4 °F 87.2 °F 71.6 °F 70% 29.89 in 10.0 mi South 8.1 mph - N/A   Mostly Cloudy
6:34 PM 80.6 °F 83.9 °F 69.8 °F 70% 29.89 in 10.0 mi SW 5.8 mph - N/A   Scattered Clouds
6:55 PM 78.8 °F - 69.8 °F 74% 29.89 in 10.0 mi SSW 3.5 mph - N/A   Clear
7:14 PM 78.8 °F - 69.8 °F 74% 29.89 in 10.0 mi Calm Calm - N/A   Clear
7:34 PM 77.0 °F - 69.8 °F 78% 29.89 in 10.0 mi South 3.5 mph - N/A   Clear
7:55 PM 75.2 °F - 69.8 °F 83% 29.89 in 10.0 mi Calm Calm - N/A   Clear
8:14 PM 75.2 °F - 69.8 °F 83% 29.89 in 10.0 mi Calm Calm - N/A   Clear
8:34 PM 73.4 °F - 69.8 °F 88% 29.90 in 10.0 mi Calm Calm - N/A   Clear
8:55 PM 73.4 °F - 69.8 °F 88% 29.90 in 10.0 mi SSE 3.5 mph - N/A   Clear
9:14 PM 73.4 °F - 69.8 °F 88% 29.91 in 10.0 mi South 3.5 mph - N/A   Clear
9:34 PM 71.6 °F - 69.8 °F 94% 29.92 in 10.0 mi Calm Calm - N/A   Clear
9:55 PM 71.6 °F - 69.8 °F 94% 29.92 in 7.0 mi Calm Calm - N/A   Clear
10:14 PM 69.8 °F - 68.0 °F 94% 29.92 in 7.0 mi Calm Calm - N/A   Clear
10:34 PM 69.8 °F - 68.0 °F 94% 29.91 in 7.0 mi Calm Calm - N/A   Clear
10:55 PM 69.8 °F - 68.0 °F 94% 29.92 in 5.0 mi Calm Calm - N/A   Clear
11:14 PM 68.0 °F - 66.2 °F 94% 29.92 in 4.0 mi Calm Calm - N/A   Clear
11:34 PM 66.2 °F - 66.2 °F 100% 29.92 in 2.5 mi Calm Calm - N/A   Clear
11:55 PM 66.2 °F - 66.2 °F 100% 29.92 in 2.5 mi Calm Calm - N/A   Clear